UOSAT-12 - Orbit

View from above orbital plane
View from above orbital plane
View from above satellite
View from above satellite

Ground track
Ground track

The orbit data is extracted from the following two-line orbital elements,

1 25693U 99021A   13143.13640120  .00000335  00000-0  63527-4 0  1535
2 25693 064.5582 022.4120 0015100 333.2295 169.1687 14.79503593760201
Epoch (UTC): 23 May 2013 03:16:25
Eccentricity: 0.0015100
inclination: 64.5582°
perigee height: 620 km
apogee height: 641 km
right ascension of ascending node: 22.4120°
argument of perigee: 333.2295°
revolutions per day: 14.79503593
mean anomaly at epoch: 169.1687°
orbit number at epoch: 76020

The dashed part of the orbit path shows where the satellite is in the earth's shadow,  

Developed and maintained by Chris Peat, Heavens-Above GmbH. Please read the updated FAQ before sending e-mail. Imprint. DLR